Location: Risskov
(56.1972°N, 10.2480°E)
Time: 23:37:42
(UTC+00:00)

Cosmos 1680 Rocket - Pass Details

Date: 05 July 2020
Orbit: 760 x 781 km, 74.1° (Epoch: 14 August)

Event Time Altitude Azimuth Distance (km) Brightness Sun altitude
Exits shadow 21:35:38 - 170° (S) 2,436 5.5 -7.9°
Reaches altitude 10° 21:35:56 10° 169° (SSE) 2,332 5.4 -7.9°
Maximum altitude 21:40:43 35° 104° (ESE) 1,238 4.3 -8.2°
Drops below altitude 10° 21:45:32 10° 40° (NE) 2,348 6.4 -8.4°
Sets 21:48:05 0° 32° (NNE) 3,279 7.3 -8.6°
